Tracking 19476 objects as of 17-Jan-2019
HD Live streaming from Space Station
objects crossing your sky now

COSMOS 1880

Track COSMOS 1880 now!
10-day predictions
COSMOS 1880 is classified as:


NORAD ID: 18339
Int'l Code: 1987-074F
Perigee: 1,400.4 km
Apogee: 1,414.9 km
Inclination: 82.6 °
Period: 113.8 minutes
Semi major axis: 7778 km
RCS: 1.0638 m2 (large)
Launch date: September 7, 1987
Source: Commonwealth of Independent States (former USSR) (CIS)
Launch site: PLESETSK MISSILE AND SPACE COMPLEX (PKMTR)
aabbcc
Your satellite tracking list
Your tracking list is empty




NASA's NSSDC Master Catalog

Two Line Element Set (TLE):
1 18339U 87074F   19015.96175097 +.00000040 +00000-0 +15917-3 0  9990
2 18339 082.5594 205.6050 0009329 221.6531 252.5213 12.65462745448277
Source of the keplerian elements: AFSPC